STARLINK-1871, 47157

Orbit data source: Space-Track

STARLINK-1871, 47157 is a payload satellite owned by SpaceX/Seattle (US) in LEO that was launched on Wed, 25 Nov 2020 UTC via an FALCON 9 launch vehicle from the Air Force Eastern Test Range (AFETR). Payload-class satellites include a variety of spacecraft equipped with specific instruments for various scientific and technological missions. These include communications satellites like Starlink; space stations such as the ISS; scientific satellites like the Hubble; Earth observation satellites from companies like Planet Labs, Umbra, and HawkEye 360; GPS; miniature CubeSats for education and research; and military/defense satellites.

Loading next visibility...
Identifier
47157, 2020-088AM
Orbit
LEO
Country
Flag of USUS
Related business
Manufacturer
SpaceX/Seattle
Mission
Partially operational Commercial Communications
Bus & Motor
STARLINK, Unknown motor
Mass
260 kg wet, ~248 kg dry
Launch date (UTC)
2020-11-25 (6 years ago)
Launch vehicle
FALCON 9
Launch site
Air Force Eastern Test Range (AFETR)
Object type
Payload
Rocket body
Debris
Shape & HBR
Box + 1 Pan, 10.1 m
Radar Cross Section
13.562 m², Large (>1 m²)

Expand to show TLE details & history
Last TLE update: 2 days ago

TLE from 2 days ago
0 STARLINK-1871
1 47157U 20088AM  26171.40845138  .00032601  00000-0  88907-3 0  9999
2 47157  53.1564 177.3109 0005531  17.7276 342.3919 15.37175405307674
Epoch: 2026-06-20T09:48Z
TLE epoch observation values (Epoch: 2026-06-20T09:48:10.199Z)
Latitude
-0.00007°
Longitude
121.64485°
Altitude
451.767 km
Speed
7.645 km/s
True Right ascension
11h 49m 14s
True Declination
0° 00' 00"
Sunlit
Object was in daylight at epoch
Visualization orbit readout
Latitude
Unknown
Longitude
Unknown
Altitude
Unknown
Speed
Unknown
Apparent Right ascension
Unknown
Apparent Declination
Unknown
Sunlit
N/A
Visualization observer readout
Local Sidereal Time
23:07:18
Azimuth
Unknown
Elevation
Unknown
Doppler factor
Unknown
Orbital elements
Apogee altitude
458.504 km
Perigee altitude
450.945 km
Semi-major axis
6,832.861 km
Eccentricity
0.00055
Inclination
53.1564°
RAAN
177.3109°
Arg. of periapsis
17.7276°
True anomaly
342.37271°
Mean anomaly
342.3919°
Eccentric anomaly
342.38231°
Mean motion
3.84272 °/min
Orbital period
93.68 mins
BSTAR
0.00088907
Loading maneuver chart data...
Computing Atmospheric mass density...

Documentation

Showing up to 5 results
|